AirNav   ATP
 
 419 users online  

2D7 Beach City Airport
Beach City, Ohio, USA

GOING TO BEACH CITY?


FAA INFORMATION EFFECTIVE 26 APRIL 2018

Location

FAA Identifier: 2D7
Lat/Long: 40-38-46.8650N / 081-33-21.2400W
40-38.781083N / 081-33.354000W
40.6463514 / -81.5559000
(estimated)
Elevation: 984 ft. / 299.9 m (surveyed)
Variation: 06W (1985)
From city: 1 mile E of BEACH CITY, OH
Time zone: UTC -4 (UTC -5 during Standard Time)
Zip code: 44608

Airport Operations

Airport use: Open to the public
Activation date: 10/1955
Control tower: no
ARTCC: CLEVELAND CENTER
FSS: CLEVELAND FLIGHT SERVICE STATION
NOTAMs facility: CLE (NOTAM-D service available)
Attendance: IREG
Pattern altitude: 1800 ft. MSL
Wind indicator: lighted
Segmented circle: no
Lights: ACTVT LIRL 10/28 - 122.85.
Beacon: white-green (lighted land airport)
ACTVT ROTG BCN - 122.85.

Airport Communications

CTAF/UNICOM: 122.8
AKRON-CANTON APPROACH: 125.5 [0600-0000]
AKRON-CANTON DEPARTURE: 125.5 [0600-0000]
WX ASOS at PHD (12 nm SE): 121.425 (330-339-1125)
WX ASOS at CAK (17 nm N): PHONE 330-493-5260
WX AWOS-3 at 10G (19 nm W): 128.325 (330-674-6279)
  • APCH/DEP SVC PRVDD BY CLEVELAND ARTCC ON FREQS 134.9/317.7 (MANSFIELD RCAG) OR CALL CLEVELAND ARTCC (ZOB) 440-774-0485 WHEN AKRON-CANTON (CAK) APCH CTL CLSD.

Nearby radio navigation aids

VOR radial/distance  VOR name  Freq  Var
BSVr229/8.0BRIGGS VOR/DME112.4004W
CTWr359/25.3NEWCOMERSTOWN VOR/DME111.8007W
TVTr070/28.4TIVERTON VOR/DME116.5003W
ACOr214/32.0AKRON VOR/DME114.4004W

 
NDB name  Hdg/Dist  Freq  Var  ID
CADIZ322/34.923907WCFX -.-. ..-. -..-

Airport Services

Parking: hangars and tiedowns
Airframe service: NONE
Powerplant service: NONE
Bottled oxygen: NONE
Bulk oxygen: NONE

Runway Information

Runway 10/28

Dimensions: 3175 x 115 ft. / 968 x 35 m
Surface: turf, in good condition
Runway edge lights: low intensity
NSTD; DSPLCD THLDS UNLGTD.
Runway edge markings: 10/28 DSPLCD THLD MKD WITH THLD LGTS ON 1 FT DAY GLO RED CONTAINERS.
Gradient: W
RUNWAY 10  RUNWAY 28
Latitude: 40-38.787000N40-38.775167N
Longitude: 081-33.697333W081-33.010667W
Elevation: 984.0 ft.975.0 ft.
Gradient: 0.2%0.3% UP
Traffic pattern: leftleft
Runway heading: 098 magnetic, 092 true278 magnetic, 272 true
Displaced threshold: 425 ft.734 ft.
Visual slope indicator: 2-box VASI on right (3.00 degrees glide path)
Runway end identifier lights: nono
Touchdown point: yes, no lightsyes, no lights
Obstructions: 32 ft. pline, 125 ft. right of centerline
RWY 10 OTHER OBST: +35FT TREE 95FT FM RWY 10 105FT L, 14:1 TO DSPLCD RWY 10.
40 ft. trees, 90 ft. from runway, 90 ft. right of centerline, 2:1 slope to clear

Airport Ownership and Management from official FAA records

Ownership: Privately-owned
Owner: BEACH CITY ARPT INC
P.O. BOX 82
NAVARRE, OH 44662
Phone 330-236-5041
Manager: GARY SLUTZ
10431 DOLPHIN STREET
BEACH CITY, OH 44608
Phone (330) 704-5686

Airport Operational Statistics

Aircraft based on the field: 35
Single engine airplanes: 35
    
Aircraft operations: avg 117/week *
66% local general aviation
34% transient general aviation
* for 12-month period ending 12 August 2017

Additional Remarks

NO ULTRALIGHT ACFT 1 NM RADIUS.
ARPT CLSD TO MIL HELICOPTERS.
APCH/DEP SVC PRVDD BY CLEVELAND ARTCC ON FREQS 134.9/317.7 (MANSFIELD RCAG) OR CALL CLEVELAND ARTCC (ZOB) 440-774-0485 WHEN AKRON-CANTON (CAK) APCH CTL CLSD.
BIRDS & OTHER WILDLIFE ON & INVOF AIRPORT

Instrument Procedures

There are no published instrument procedures at 2D7.

Some nearby airports with instrument procedures:

KPHD - Harry Clever Field Airport (12 nm SE)
KCAK - Akron-Canton Regional Airport (17 nm N)
10G - Holmes County Airport (19 nm W)
KBJJ - Wayne County Airport (20 nm NW)
KTSO - Carroll County-Tolson Airport (22 nm E)
 
Loc | Ops | Rwys | IFR | FBO | Links
Com | Nav | Svcs | Stats | Notes

AirNav Hotels Sweepstakes
 
Area around 2D7 (Beach City Airport)
 
Road maps at: MapQuest Bing Google
 
Aerial photo
WARNING: Photo may not be current or correct
Aerial photo of 2D7 (Beach City Airport)
Do you have a better or more recent aerial photo of Beach City Airport that you would like to share? If so, please send us your photo.

 
Sectional chart

 
Airport distance calculator
Flying to Beach City Airport? Find the distance to fly.

From to 2D7

Sunrise and sunset
Times for 24-May-2018
 Local
(UTC-4)
 Zulu
(UTC)
Morning civil twilight05:3109:31
Sunrise06:0310:03
Sunset20:4300:43
Evening civil twilight21:1501:15

Current date and time
Zulu (UTC)  24-May-2018 10:13:07
Local (UTC-4)  24-May-2018 06:13:07
 
METAR
KPHD 
13nm SE 
240953Z AUTO 00000KT 1/4SM FG VV001 11/10 A3023 RMK AO2 SLP233 T01060100
KCAK 
17nm N 
240951Z 00000KT 10SM FEW250 12/09 A3022 RMK AO2 SLP228 T01220094
KBJJ 
20nm NW 
240956Z AUTO 00000KT 8SM CLR 09/08 A3023 RMK AO2 SLP234 T00940083
KAKR 
24nm N 
240954Z AUTO 00000KT 3SM BR CLR 11/09 A3022 RMK AO2 SLP228 T01060089
TAF
KCAK 
17nm N 
240538Z 2406/2506 VRB03KT P6SM SCT250 FM241600 11005KT P6SM SCT250
NOTAMs
Click for the latest NOTAMs
NOTAMs are issued by the DoD/FAA and will open in a separate window not controlled by AirNav.

 

 
 

Would you like to see your business listed on this page?

 If your business provides an interesting product or service to pilots, flight crews, aircraft, or users of the Beach City Airport, you should consider listing it here.  To start the listing process, click on the button below
 
Add a business
 

Other Pages about Beach City Airport

Update a link
 
Copyright © AirNav, LLC. All rights reserved. Privacy Policy  Contact